contact:dominique.lefevre@mio.osupytheas.fr, maurice.libes@osupytheas.fr, didier.mallarino@osupytheas.fr
Project:EMSO http://www.emso-fr.org/EMSO-France
Depth: 2436.0 m
Title:EMSO Ligure Ouest : Data MII capteur MICROCAT
DateTime_Computer,Latitude,Longitude,Temperature,Conductivity,Pressure,DateTime_Instrument
DateTime_Computer,Latitude,Longitude,degC,S m-1,dbar,DateTime_Instrument
2020-03-14T00:01:40Z,42.805,6.029,13.2973,4.59981,2470.04,2020-3-14T02:02:17Z
2020-03-14T00:04:43Z,42.805,6.029,13.2972,4.59981,2470.077,2020-3-14T02:05:20Z
2020-03-14T00:07:46Z,42.805,6.029,13.2973,4.59980,2470.077,2020-3-14T02:08:23Z
2020-03-14T00:10:49Z,42.805,6.029,13.2973,4.59978,2470.063,2020-3-14T02:11:26Z
2020-03-14T00:13:53Z,42.805,6.029,13.2973,4.59981,2470.063,2020-3-14T02:14:30Z
2020-03-14T00:16:56Z,42.805,6.029,13.2969,4.59980,2470.1,2020-3-14T02:17:33Z
2020-03-14T00:19:59Z,42.805,6.029,13.2969,4.59990,2470.087,2020-3-14T02:20:36Z
2020-03-14T00:23:02Z,42.805,6.029,13.2975,4.59979,2470.11,2020-3-14T02:23:39Z
2020-03-14T00:26:06Z,42.805,6.029,13.2976,4.59986,2470.063,2020-3-14T02:26:43Z
2020-03-14T00:29:09Z,42.805,6.029,13.2971,4.59985,2470.077,2020-3-14T02:29:46Z
2020-03-14T00:32:12Z,42.805,6.029,13.2971,4.59981,2470.063,2020-3-14T02:32:49Z
2020-03-14T00:35:15Z,42.805,6.029,13.2974,4.59980,2470.1,2020-3-14T02:35:53Z
2020-03-14T00:38:19Z,42.805,6.029,13.2969,4.59976,2470.087,2020-3-14T02:38:56Z
2020-03-14T00:41:22Z,42.805,6.029,13.2971,4.59986,2470.053,2020-3-14T02:41:59Z
2020-03-14T00:44:25Z,42.805,6.029,13.2976,4.59981,2470.1,2020-3-14T02:45:02Z
2020-03-14T00:47:28Z,42.805,6.029,13.2977,4.59983,2470.063,2020-3-14T02:48:05Z
2020-03-14T00:50:32Z,42.805,6.029,13.2975,4.59989,2470.053,2020-3-14T02:51:09Z
2020-03-14T00:53:35Z,42.805,6.029,13.2975,4.59979,2470.063,2020-3-14T02:54:12Z
2020-03-14T00:56:38Z,42.805,6.029,13.2978,4.59982,2470.077,2020-3-14T02:57:15Z
2020-03-14T00:59:41Z,42.805,6.029,13.2973,4.59983,2470.04,2020-3-14T03:00:18Z
2020-03-14T01:02:45Z,42.805,6.029,13.2974,4.59981,2469.993,2020-3-14T03:03:22Z
2020-03-14T01:05:48Z,42.805,6.029,13.2978,4.59992,2470.04,2020-3-14T03:06:25Z
2020-03-14T01:08:51Z,42.805,6.029,13.2971,4.59987,2470.04,2020-3-14T03:09:28Z
2020-03-14T01:11:54Z,42.805,6.029,13.2974,4.59983,2470.04,2020-3-14T03:12:31Z
2020-03-14T01:14:57Z,42.805,6.029,13.2972,4.59982,2470.04,2020-3-14T03:15:35Z
2020-03-14T01:18:01Z,42.805,6.029,13.2977,4.59982,2470.063,2020-3-14T03:18:38Z
2020-03-14T01:21:04Z,42.805,6.029,13.2976,4.59978,2470.053,2020-3-14T03:21:41Z
2020-03-14T01:24:07Z,42.805,6.029,13.2976,4.59989,2470.017,2020-3-14T03:24:44Z
2020-03-14T01:27:11Z,42.805,6.029,13.2980,4.59984,2470.03,2020-3-14T03:27:48Z
2020-03-14T01:30:14Z,42.805,6.029,13.2976,4.59986,2470.053,2020-3-14T03:30:51Z
2020-03-14T01:33:17Z,42.805,6.029,13.2977,4.59986,2470.053,2020-3-14T03:33:54Z
2020-03-14T01:36:20Z,42.805,6.029,13.2976,4.59991,2469.993,2020-3-14T03:36:57Z
2020-03-14T01:39:23Z,42.805,6.029,13.2972,4.59978,2470.017,2020-3-14T03:40:00Z
2020-03-14T01:42:27Z,42.805,6.029,13.2980,4.59984,2470.03,2020-3-14T03:43:04Z
2020-03-14T01:45:30Z,42.805,6.029,13.2974,4.59986,2470.007,2020-3-14T03:46:07Z
2020-03-14T01:48:33Z,42.805,6.029,13.2980,4.59987,2470.03,2020-3-14T03:49:10Z
2020-03-14T01:51:37Z,42.805,6.029,13.2971,4.59983,2470.017,2020-3-14T03:52:14Z
2020-03-14T01:54:40Z,42.805,6.029,13.2974,4.59980,2470.017,2020-3-14T03:55:17Z
2020-03-14T01:57:43Z,42.805,6.029,13.2976,4.59982,2470.017,2020-3-14T03:58:20Z
2020-03-14T02:00:46Z,42.805,6.029,13.2974,4.59982,2470.053,2020-3-14T04:01:23Z
2020-03-14T02:03:50Z,42.805,6.029,13.2974,4.59995,2470.017,2020-3-14T04:04:27Z
2020-03-14T02:06:53Z,42.805,6.029,13.2977,4.59991,2470.04,2020-3-14T04:07:30Z
2020-03-14T02:09:56Z,42.805,6.029,13.2973,4.59984,2470.04,2020-3-14T04:10:33Z
2020-03-14T02:12:59Z,42.805,6.029,13.2977,4.59995,2470.03,2020-3-14T04:13:36Z
2020-03-14T02:16:02Z,42.805,6.029,13.2977,4.59991,2469.993,2020-3-14T04:16:40Z
2020-03-14T02:19:06Z,42.805,6.029,13.2973,4.60005,2470.017,2020-3-14T04:19:43Z
2020-03-14T02:22:09Z,42.805,6.029,13.2976,4.59988,2469.947,2020-3-14T04:22:46Z
2020-03-14T02:25:12Z,42.805,6.029,13.2972,4.59987,2469.97,2020-3-14T04:25:49Z
2020-03-14T02:28:16Z,42.805,6.029,13.2980,4.59999,2470.03,2020-3-14T04:28:53Z
2020-03-14T02:31:19Z,42.805,6.029,13.2979,4.59988,2470.007,2020-3-14T04:31:56Z
2020-03-14T02:34:22Z,42.805,6.029,13.2979,4.59984,2469.984,2020-3-14T04:34:59Z
2020-03-14T02:37:25Z,42.805,6.029,13.2974,4.59984,2469.97,2020-3-14T04:38:02Z
2020-03-14T02:40:29Z,42.805,6.029,13.2974,4.59985,2469.993,2020-3-14T04:41:06Z
2020-03-14T02:43:32Z,42.805,6.029,13.2980,4.59983,2469.984,2020-3-14T04:44:09Z
2020-03-14T02:46:35Z,42.805,6.029,13.2976,4.59985,2470.007,2020-3-14T04:47:12Z
2020-03-14T02:49:38Z,42.805,6.029,13.2974,4.59981,2469.979,2020-3-14T04:50:15Z
2020-03-14T02:52:42Z,42.805,6.029,13.2976,4.59986,2470.007,2020-3-14T04:53:19Z
2020-03-14T02:55:45Z,42.805,6.029,13.2972,4.59988,2469.993,2020-3-14T04:56:22Z
2020-03-14T02:58:48Z,42.805,6.029,13.2977,4.59991,2470.007,2020-3-14T04:59:25Z
2020-03-14T03:01:51Z,42.805,6.029,13.2976,4.59983,2469.947,2020-3-14T05:02:28Z
2020-03-14T03:04:55Z,42.805,6.029,13.2972,4.59979,2469.984,2020-3-14T05:05:32Z
2020-03-14T03:07:58Z,42.805,6.029,13.2968,4.59986,2469.947,2020-3-14T05:08:35Z
2020-03-14T03:11:01Z,42.805,6.029,13.2974,4.59982,2469.956,2020-3-14T05:11:38Z
2020-03-14T03:14:04Z,42.805,6.029,13.2976,4.59988,2469.984,2020-3-14T05:14:41Z
2020-03-14T03:17:07Z,42.805,6.029,13.2973,4.59995,2469.97,2020-3-14T05:17:44Z
2020-03-14T03:20:11Z,42.805,6.029,13.2976,4.59986,2469.947,2020-3-14T05:20:48Z
2020-03-14T03:23:14Z,42.805,6.029,13.2976,4.59981,2469.97,2020-3-14T05:23:51Z
2020-03-14T03:26:17Z,42.805,6.029,13.2971,4.59980,2469.984,2020-3-14T05:26:54Z
2020-03-14T03:29:20Z,42.805,6.029,13.2979,4.59988,2469.993,2020-3-14T05:29:57Z
2020-03-14T03:32:24Z,42.805,6.029,13.2982,4.60000,2469.947,2020-3-14T05:33:01Z
2020-03-14T03:35:27Z,42.805,6.029,13.2972,4.59983,2469.984,2020-3-14T05:36:04Z
2020-03-14T03:38:30Z,42.805,6.029,13.2983,4.59991,2469.9,2020-3-14T05:39:07Z
2020-03-14T03:41:34Z,42.805,6.029,13.2975,4.59994,2469.947,2020-3-14T05:42:11Z
2020-03-14T03:44:37Z,42.805,6.029,13.2976,4.59986,2469.97,2020-3-14T05:45:14Z
2020-03-14T03:47:40Z,42.805,6.029,13.2976,4.59981,2469.97,2020-3-14T05:48:17Z
2020-03-14T03:50:43Z,42.805,6.029,13.2975,4.59988,2470.007,2020-3-14T05:51:20Z
2020-03-14T03:53:47Z,42.805,6.029,13.2981,4.59994,2469.97,2020-3-14T05:54:24Z
2020-03-14T03:56:50Z,42.805,6.029,13.2975,4.59988,2469.937,2020-3-14T05:57:27Z
2020-03-14T03:59:53Z,42.805,6.029,13.2976,4.59995,2469.97,2020-3-14T06:00:30Z
2020-03-14T04:02:57Z,42.805,6.029,13.2969,4.59984,2469.97,2020-3-14T06:03:34Z
2020-03-14T04:06:00Z,42.805,6.029,13.2976,4.59986,2469.97,2020-3-14T06:06:37Z
2020-03-14T04:09:03Z,42.805,6.029,13.2975,4.59988,2469.97,2020-3-14T06:09:40Z
2020-03-14T04:12:06Z,42.805,6.029,13.2991,4.59996,2469.923,2020-3-14T06:12:44Z
2020-03-14T04:15:10Z,42.805,6.029,13.2984,4.59996,2469.947,2020-3-14T06:15:47Z
2020-03-14T04:18:13Z,42.805,6.029,13.2977,4.59991,2469.937,2020-3-14T06:18:50Z
2020-03-14T04:21:16Z,42.805,6.029,13.2982,4.60005,2469.97,2020-3-14T06:21:53Z
2020-03-14T04:24:19Z,42.805,6.029,13.2968,4.59986,2469.947,2020-3-14T06:24:56Z
2020-03-14T04:27:23Z,42.805,6.029,13.2973,4.59986,2469.97,2020-3-14T06:28:00Z
2020-03-14T04:30:26Z,42.805,6.029,13.2975,4.59998,2469.937,2020-3-14T06:31:03Z
2020-03-14T04:33:29Z,42.805,6.029,13.2976,4.59981,2469.923,2020-3-14T06:34:06Z
2020-03-14T04:36:33Z,42.805,6.029,13.2976,4.59998,2469.96,2020-3-14T06:37:10Z
2020-03-14T04:39:36Z,42.805,6.029,13.2979,4.59993,2469.947,2020-3-14T06:40:13Z
2020-03-14T04:42:39Z,42.805,6.029,13.2979,4.59991,2469.96,2020-3-14T06:43:16Z
2020-03-14T04:45:43Z,42.805,6.029,13.2976,4.59994,2469.923,2020-3-14T06:46:20Z
2020-03-14T04:48:46Z,42.805,6.029,13.2978,4.59987,2469.947,2020-3-14T06:49:23Z
2020-03-14T04:51:49Z,42.805,6.029,13.2975,4.60009,2469.914,2020-3-14T06:52:26Z
2020-03-14T04:54:52Z,42.805,6.029,13.2976,4.59997,2469.97,2020-3-14T06:55:29Z
2020-03-14T04:57:56Z,42.805,6.029,13.2983,4.59994,2469.923,2020-3-14T06:58:33Z
2020-03-14T05:00:59Z,42.805,6.029,13.2975,4.59986,2469.947,2020-3-14T07:01:36Z
2020-03-14T05:04:02Z,42.805,6.029,13.2979,4.59992,2469.923,2020-3-14T07:04:39Z
2020-03-14T05:07:06Z,42.805,6.029,13.2983,4.59988,2469.947,2020-3-14T07:07:43Z
2020-03-14T05:10:09Z,42.805,6.029,13.2973,4.59981,2469.96,2020-3-14T07:10:46Z
2020-03-14T05:13:12Z,42.805,6.029,13.2975,4.59984,2469.947,2020-3-14T07:13:49Z
2020-03-14T05:16:15Z,42.805,6.029,13.2978,4.59986,2469.97,2020-3-14T07:16:52Z
2020-03-14T05:19:18Z,42.805,6.029,13.2978,4.59984,2469.984,2020-3-14T07:19:56Z
2020-03-14T05:22:22Z,42.805,6.029,13.2991,4.60014,2469.96,2020-3-14T07:22:59Z
2020-03-14T05:25:25Z,42.805,6.029,13.2987,4.60016,2469.947,2020-3-14T07:26:02Z
2020-03-14T05:28:28Z,42.805,6.029,13.2978,4.59998,2469.96,2020-3-14T07:29:05Z
2020-03-14T05:31:31Z,42.805,6.029,13.2975,4.59998,2469.993,2020-3-14T07:32:08Z
2020-03-14T05:34:35Z,42.805,6.029,13.2979,4.60005,2469.984,2020-3-14T07:35:12Z
2020-03-14T05:37:38Z,42.805,6.029,13.2979,4.59995,2469.97,2020-3-14T07:38:15Z
2020-03-14T05:40:41Z,42.805,6.029,13.2979,4.59990,2469.947,2020-3-14T07:41:18Z
2020-03-14T05:43:44Z,42.805,6.029,13.2979,4.59996,2469.947,2020-3-14T07:44:21Z
2020-03-14T05:46:48Z,42.805,6.029,13.2982,4.59997,2469.937,2020-3-14T07:47:25Z
2020-03-14T05:49:51Z,42.805,6.029,13.2976,4.59991,2469.947,2020-3-14T07:50:28Z
2020-03-14T05:52:54Z,42.805,6.029,13.2981,4.60004,2469.97,2020-3-14T07:53:31Z
2020-03-14T05:55:57Z,42.805,6.029,13.2976,4.59988,2469.993,2020-3-14T07:56:34Z
2020-03-14T05:59:01Z,42.805,6.029,13.2972,4.59991,2469.97,2020-3-14T07:59:38Z
2020-03-14T06:02:04Z,42.805,6.029,13.2976,4.59995,2469.947,2020-3-14T08:02:41Z
2020-03-14T06:05:07Z,42.805,6.029,13.2976,4.59989,2469.96,2020-3-14T08:05:44Z
2020-03-14T06:08:10Z,42.805,6.029,13.2974,4.59981,2469.96,2020-3-14T08:08:47Z
2020-03-14T06:11:13Z,42.805,6.029,13.2968,4.59983,2469.97,2020-3-14T08:11:51Z
2020-03-14T06:14:17Z,42.805,6.029,13.2983,4.59991,2469.96,2020-3-14T08:14:54Z
2020-03-14T06:17:20Z,42.805,6.029,13.2979,4.59983,2469.97,2020-3-14T08:17:57Z
2020-03-14T06:20:23Z,42.805,6.029,13.2972,4.59991,2469.937,2020-3-14T08:21:00Z
2020-03-14T06:23:27Z,42.805,6.029,13.2970,4.59988,2469.993,2020-3-14T08:24:04Z
2020-03-14T06:26:30Z,42.805,6.029,13.2978,4.60006,2469.97,2020-3-14T08:27:07Z
2020-03-14T06:29:33Z,42.805,6.029,13.2975,4.60005,2469.97,2020-3-14T08:30:10Z
2020-03-14T06:32:36Z,42.805,6.029,13.2979,4.60004,2469.947,2020-3-14T08:33:13Z
2020-03-14T06:35:40Z,42.805,6.029,13.2976,4.59997,2469.984,2020-3-14T08:36:17Z
2020-03-14T06:38:43Z,42.805,6.029,13.2979,4.60003,2469.993,2020-3-14T08:39:20Z
2020-03-14T06:41:46Z,42.805,6.029,13.2980,4.59992,2469.97,2020-3-14T08:42:23Z
2020-03-14T06:44:49Z,42.805,6.029,13.2982,4.59997,2469.947,2020-3-14T08:45:26Z
2020-03-14T06:47:53Z,42.805,6.029,13.2972,4.60000,2469.984,2020-3-14T08:48:30Z
2020-03-14T06:50:56Z,42.805,6.029,13.2977,4.59998,2470.007,2020-3-14T08:51:33Z
2020-03-14T06:53:59Z,42.805,6.029,13.2976,4.59996,2469.984,2020-3-14T08:54:36Z
2020-03-14T06:57:02Z,42.805,6.029,13.2974,4.59988,2470.04,2020-3-14T08:57:39Z
2020-03-14T07:00:05Z,42.805,6.029,13.2979,4.59995,2469.993,2020-3-14T09:00:42Z
2020-03-14T07:03:09Z,42.805,6.029,13.2978,4.60006,2469.993,2020-3-14T09:03:46Z
2020-03-14T07:06:12Z,42.805,6.029,13.2978,4.60003,2470.017,2020-3-14T09:06:49Z
2020-03-14T07:09:15Z,42.805,6.029,13.2978,4.59998,2470.007,2020-3-14T09:09:52Z
2020-03-14T07:12:18Z,42.805,6.029,13.2984,4.60008,2470.007,2020-3-14T09:12:55Z
2020-03-14T07:15:22Z,42.805,6.029,13.2977,4.59993,2470.017,2020-3-14T09:15:59Z
2020-03-14T07:18:25Z,42.805,6.029,13.2979,4.60008,2470.04,2020-3-14T09:19:02Z
2020-03-14T07:21:28Z,42.805,6.029,13.2974,4.59999,2470.03,2020-3-14T09:22:05Z
2020-03-14T07:24:31Z,42.805,6.029,13.2975,4.60001,2470.03,2020-3-14T09:25:08Z
2020-03-14T07:27:35Z,42.805,6.029,13.2974,4.59991,2470.053,2020-3-14T09:28:12Z
2020-03-14T07:30:38Z,42.805,6.029,13.2968,4.59992,2470.03,2020-3-14T09:31:15Z
2020-03-14T07:33:41Z,42.805,6.029,13.2971,4.59998,2470.053,2020-3-14T09:34:18Z
2020-03-14T07:36:45Z,42.805,6.029,13.2980,4.60006,2470.017,2020-3-14T09:37:22Z
2020-03-14T07:39:48Z,42.805,6.029,13.2981,4.60013,2470.053,2020-3-14T09:40:25Z
2020-03-14T07:42:51Z,42.805,6.029,13.2979,4.59990,2470.077,2020-3-14T09:43:28Z
2020-03-14T07:45:54Z,42.805,6.029,13.2976,4.59999,2470.053,2020-3-14T09:46:31Z
2020-03-14T07:48:58Z,42.805,6.029,13.2974,4.59988,2470.03,2020-3-14T09:49:35Z
2020-03-14T07:52:01Z,42.805,6.029,13.2975,4.59996,2470.077,2020-3-14T09:52:38Z
2020-03-14T07:55:04Z,42.805,6.029,13.2967,4.59992,2470.04,2020-3-14T09:55:41Z
2020-03-14T07:58:07Z,42.805,6.029,13.2974,4.59984,2470.063,2020-3-14T09:58:44Z
2020-03-14T08:01:11Z,42.805,6.029,13.2974,4.59995,2470.077,2020-3-14T10:01:48Z
2020-03-14T08:04:14Z,42.805,6.029,13.2973,4.60000,2470.063,2020-3-14T10:04:51Z
2020-03-14T08:07:17Z,42.805,6.029,13.2976,4.59993,2470.063,2020-3-14T10:07:54Z
2020-03-14T08:10:20Z,42.805,6.029,13.2973,4.59988,2470.1,2020-3-14T10:10:57Z
2020-03-14T08:13:24Z,42.805,6.029,13.2974,4.59994,2470.04,2020-3-14T10:14:01Z
2020-03-14T08:16:27Z,42.805,6.029,13.2980,4.59996,2470.11,2020-3-14T10:17:04Z
2020-03-14T08:19:30Z,42.805,6.029,13.2977,4.59991,2470.087,2020-3-14T10:20:07Z
2020-03-14T08:22:33Z,42.805,6.029,13.2971,4.60004,2470.063,2020-3-14T10:23:10Z
2020-03-14T08:25:37Z,42.805,6.029,13.2973,4.59999,2470.04,2020-3-14T10:26:14Z
2020-03-14T08:28:40Z,42.805,6.029,13.2974,4.59988,2470.1,2020-3-14T10:29:17Z
2020-03-14T08:31:43Z,42.805,6.029,13.2972,4.59987,2470.077,2020-3-14T10:32:20Z
2020-03-14T08:34:47Z,42.805,6.029,13.2976,4.59996,2470.11,2020-3-14T10:35:24Z
2020-03-14T08:37:50Z,42.805,6.029,13.2976,4.60011,2470.124,2020-3-14T10:38:27Z
2020-03-14T08:40:53Z,42.805,6.029,13.2971,4.59999,2470.1,2020-3-14T10:41:30Z
2020-03-14T08:43:56Z,42.805,6.029,13.2974,4.59990,2470.1,2020-3-14T10:44:33Z
2020-03-14T08:46:59Z,42.805,6.029,13.2974,4.59998,2470.147,2020-3-14T10:47:37Z
2020-03-14T08:50:03Z,42.805,6.029,13.2979,4.59994,2470.077,2020-3-14T10:50:40Z
2020-03-14T08:53:06Z,42.805,6.029,13.2976,4.59998,2470.087,2020-3-14T10:53:43Z
2020-03-14T08:56:09Z,42.805,6.029,13.2977,4.59988,2470.133,2020-3-14T10:56:46Z
2020-03-14T08:59:13Z,42.805,6.029,13.2971,4.59996,2470.1,2020-3-14T10:59:50Z
2020-03-14T09:02:16Z,42.805,6.029,13.2976,4.59996,2470.11,2020-3-14T11:02:53Z
2020-03-14T09:05:19Z,42.805,6.029,13.2976,4.60007,2470.11,2020-3-14T11:05:56Z
2020-03-14T09:08:22Z,42.805,6.029,13.2971,4.59996,2470.133,2020-3-14T11:08:59Z
2020-03-14T09:11:26Z,42.805,6.029,13.2978,4.59987,2470.124,2020-3-14T11:12:03Z
2020-03-14T09:14:29Z,42.805,6.029,13.2976,4.59999,2470.147,2020-3-14T11:15:06Z
2020-03-14T09:17:32Z,42.805,6.029,13.2974,4.59995,2470.11,2020-3-14T11:18:09Z
2020-03-14T09:20:35Z,42.805,6.029,13.2973,4.59984,2470.171,2020-3-14T11:21:12Z
2020-03-14T09:23:39Z,42.805,6.029,13.2980,4.59990,2470.156,2020-3-14T11:24:16Z
2020-03-14T09:26:42Z,42.805,6.029,13.2978,4.60003,2470.147,2020-3-14T11:27:19Z
2020-03-14T09:29:45Z,42.805,6.029,13.2977,4.59991,2470.133,2020-3-14T11:30:22Z
2020-03-14T09:32:48Z,42.805,6.029,13.2979,4.59994,2470.147,2020-3-14T11:33:25Z
2020-03-14T09:35:52Z,42.805,6.029,13.2975,4.59996,2470.171,2020-3-14T11:36:29Z
2020-03-14T09:38:55Z,42.805,6.029,13.2978,4.59986,2470.171,2020-3-14T11:39:32Z
2020-03-14T09:41:58Z,42.805,6.029,13.2976,4.59981,2470.171,2020-3-14T11:42:35Z
2020-03-14T09:45:02Z,42.805,6.029,13.2982,4.59997,2470.156,2020-3-14T11:45:39Z
2020-03-14T09:48:05Z,42.805,6.029,13.2977,4.59989,2470.156,2020-3-14T11:48:42Z
2020-03-14T09:51:08Z,42.805,6.029,13.2979,4.59995,2470.18,2020-3-14T11:51:45Z
2020-03-14T09:54:11Z,42.805,6.029,13.2976,4.59992,2470.133,2020-3-14T11:54:48Z
2020-03-14T09:57:14Z,42.805,6.029,13.2974,4.59991,2470.156,2020-3-14T11:57:52Z
2020-03-14T10:00:18Z,42.805,6.029,13.2974,4.59995,2470.171,2020-3-14T12:00:55Z
2020-03-14T10:03:21Z,42.805,6.029,13.2971,4.59986,2470.171,2020-3-14T12:03:58Z
2020-03-14T10:06:24Z,42.805,6.029,13.2976,4.59988,2470.156,2020-3-14T12:07:01Z
2020-03-14T10:09:27Z,42.805,6.029,13.2977,4.60005,2470.156,2020-3-14T12:10:04Z
2020-03-14T10:12:31Z,42.805,6.029,13.2974,4.59986,2470.133,2020-3-14T12:13:08Z
2020-03-14T10:15:34Z,42.805,6.029,13.2978,4.60005,2470.156,2020-3-14T12:16:11Z
2020-03-14T10:18:37Z,42.805,6.029,13.2981,4.59986,2470.133,2020-3-14T12:19:14Z
2020-03-14T10:21:41Z,42.805,6.029,13.2976,4.59996,2470.156,2020-3-14T12:22:18Z
2020-03-14T10:24:44Z,42.805,6.029,13.2973,4.59993,2470.124,2020-3-14T12:25:21Z
2020-03-14T10:27:47Z,42.805,6.029,13.2974,4.59983,2470.156,2020-3-14T12:28:24Z
2020-03-14T10:30:50Z,42.805,6.029,13.2971,4.59983,2470.11,2020-3-14T12:31:27Z
2020-03-14T10:33:54Z,42.805,6.029,13.2974,4.59982,2470.156,2020-3-14T12:34:31Z
2020-03-14T10:36:57Z,42.805,6.029,13.2976,4.59990,2470.171,2020-3-14T12:37:34Z
2020-03-14T10:40:00Z,42.805,6.029,13.2974,4.59996,2470.156,2020-3-14T12:40:37Z
2020-03-14T10:43:03Z,42.805,6.029,13.2974,4.59994,2470.171,2020-3-14T12:43:41Z
2020-03-14T10:46:07Z,42.805,6.029,13.2975,4.59988,2470.171,2020-3-14T12:46:44Z
2020-03-14T10:49:10Z,42.805,6.029,13.2973,4.59983,2470.171,2020-3-14T12:49:47Z
2020-03-14T10:52:13Z,42.805,6.029,13.2976,4.59985,2470.171,2020-3-14T12:52:50Z
2020-03-14T10:55:16Z,42.805,6.029,13.2979,4.59994,2470.156,2020-3-14T12:55:54Z
2020-03-14T10:58:20Z,42.805,6.029,13.2971,4.59988,2470.156,2020-3-14T12:58:57Z
2020-03-14T11:01:23Z,42.805,6.029,13.2977,4.59990,2470.156,2020-3-14T13:02:00Z
2020-03-14T11:04:26Z,42.805,6.029,13.2974,4.59985,2470.156,2020-3-14T13:05:03Z
2020-03-14T11:07:29Z,42.805,6.029,13.2967,4.59978,2470.11,2020-3-14T13:08:07Z
2020-03-14T11:10:33Z,42.805,6.029,13.2979,4.59985,2470.156,2020-3-14T13:11:10Z
2020-03-14T11:13:36Z,42.805,6.029,13.2972,4.59993,2470.11,2020-3-14T13:14:13Z
2020-03-14T11:16:39Z,42.805,6.029,13.2973,4.59994,2470.133,2020-3-14T13:17:16Z
2020-03-14T11:19:42Z,42.805,6.029,13.2983,4.59993,2470.11,2020-3-14T13:20:20Z
2020-03-14T11:22:46Z,42.805,6.029,13.2974,4.59988,2470.156,2020-3-14T13:23:23Z
2020-03-14T11:25:49Z,42.805,6.029,13.2972,4.59992,2470.171,2020-3-14T13:26:26Z
2020-03-14T11:28:52Z,42.805,6.029,13.2973,4.59986,2470.11,2020-3-14T13:29:29Z
2020-03-14T11:31:55Z,42.805,6.029,13.2972,4.59986,2470.171,2020-3-14T13:32:33Z
2020-03-14T11:34:59Z,42.805,6.029,13.2971,4.59994,2470.133,2020-3-14T13:35:36Z
2020-03-14T11:38:02Z,42.805,6.029,13.2979,4.59995,2470.147,2020-3-14T13:38:39Z
2020-03-14T11:41:05Z,42.805,6.029,13.2975,4.59978,2470.124,2020-3-14T13:41:42Z
2020-03-14T11:44:09Z,42.805,6.029,13.2979,4.59995,2470.11,2020-3-14T13:44:46Z
2020-03-14T11:47:12Z,42.805,6.029,13.2978,4.59982,2470.11,2020-3-14T13:47:49Z
2020-03-14T11:50:15Z,42.805,6.029,13.2971,4.59988,2470.124,2020-3-14T13:50:52Z
2020-03-14T11:53:18Z,42.805,6.029,13.2971,4.59986,2470.11,2020-3-14T13:53:55Z
2020-03-14T11:56:22Z,42.805,6.029,13.2975,4.59986,2470.11,2020-3-14T13:56:59Z
2020-03-14T11:59:25Z,42.805,6.029,13.2972,4.59990,2470.087,2020-3-14T14:00:02Z
2020-03-14T12:02:28Z,42.805,6.029,13.2974,4.59979,2470.11,2020-3-14T14:03:05Z
2020-03-14T12:05:31Z,42.805,6.029,13.2974,4.59990,2470.11,2020-3-14T14:06:08Z
2020-03-14T12:08:34Z,42.805,6.029,13.2974,4.59988,2470.124,2020-3-14T14:09:12Z
2020-03-14T12:11:38Z,42.805,6.029,13.2973,4.59978,2470.087,2020-3-14T14:12:15Z
2020-03-14T12:14:41Z,42.805,6.029,13.2975,4.59981,2470.087,2020-3-14T14:15:18Z
2020-03-14T12:17:44Z,42.805,6.029,13.2971,4.59981,2470.087,2020-3-14T14:18:21Z
2020-03-14T12:20:47Z,42.805,6.029,13.2979,4.59989,2470.087,2020-3-14T14:21:25Z
2020-03-14T12:23:51Z,42.805,6.029,13.2974,4.59980,2470.147,2020-3-14T14:24:28Z
2020-03-14T12:26:54Z,42.805,6.029,13.2975,4.59985,2470.1,2020-3-14T14:27:31Z
2020-03-14T12:29:57Z,42.805,6.029,13.2968,4.59985,2470.11,2020-3-14T14:30:34Z
2020-03-14T12:33:00Z,42.805,6.029,13.2971,4.59975,2470.087,2020-3-14T14:33:37Z
2020-03-14T12:36:04Z,42.805,6.029,13.2975,4.59981,2470.124,2020-3-14T14:36:41Z
2020-03-14T12:39:07Z,42.805,6.029,13.2976,4.59986,2470.077,2020-3-14T14:39:44Z
2020-03-14T12:42:10Z,42.805,6.029,13.2974,4.59983,2470.087,2020-3-14T14:42:47Z
2020-03-14T12:45:13Z,42.805,6.029,13.2973,4.59996,2470.087,2020-3-14T14:45:50Z
2020-03-14T12:48:17Z,42.805,6.029,13.2967,4.59987,2470.124,2020-3-14T14:48:54Z
2020-03-14T12:51:20Z,42.805,6.029,13.2970,4.59986,2470.063,2020-3-14T14:51:57Z
2020-03-14T12:54:23Z,42.805,6.029,13.2974,4.59990,2470.087,2020-3-14T14:55:00Z
2020-03-14T12:57:26Z,42.805,6.029,13.2976,4.59991,2470.11,2020-3-14T14:58:03Z
2020-03-14T13:00:30Z,42.805,6.029,13.2978,4.59995,2470.1,2020-3-14T15:01:07Z
2020-03-14T13:03:33Z,42.805,6.029,13.2968,4.59979,2470.063,2020-3-14T15:04:10Z
2020-03-14T13:06:36Z,42.805,6.029,13.2971,4.59975,2470.087,2020-3-14T15:07:13Z
2020-03-14T13:09:40Z,42.805,6.029,13.2970,4.59982,2470.04,2020-3-14T15:10:17Z
2020-03-14T13:12:43Z,42.805,6.029,13.2977,4.59989,2470.087,2020-3-14T15:13:20Z
2020-03-14T13:15:46Z,42.805,6.029,13.2971,4.59982,2470.1,2020-3-14T15:16:23Z
2020-03-14T13:18:49Z,42.805,6.029,13.2971,4.59975,2470.077,2020-3-14T15:19:27Z
2020-03-14T13:21:53Z,42.805,6.029,13.2969,4.59973,2470.077,2020-3-14T15:22:30Z
2020-03-14T13:24:56Z,42.805,6.029,13.2968,4.59979,2470.063,2020-3-14T15:25:33Z
2020-03-14T13:27:59Z,42.805,6.029,13.2973,4.59982,2470.063,2020-3-14T15:28:36Z
2020-03-14T13:31:02Z,42.805,6.029,13.2974,4.59981,2470.04,2020-3-14T15:31:40Z
2020-03-14T13:34:06Z,42.805,6.029,13.2971,4.59981,2470.063,2020-3-14T15:34:43Z
2020-03-14T13:37:09Z,42.805,6.029,13.2970,4.59983,2470.063,2020-3-14T15:37:46Z
2020-03-14T13:40:12Z,42.805,6.029,13.2974,4.59978,2470.017,2020-3-14T15:40:49Z
2020-03-14T13:43:15Z,42.805,6.029,13.2979,4.59990,2470.063,2020-3-14T15:43:53Z
2020-03-14T13:46:19Z,42.805,6.029,13.2976,4.59986,2470.063,2020-3-14T15:46:56Z
2020-03-14T13:49:22Z,42.805,6.029,13.2977,4.59985,2470.04,2020-3-14T15:49:59Z
2020-03-14T13:52:25Z,42.805,6.029,13.2979,4.59986,2470.03,2020-3-14T15:53:02Z
2020-03-14T13:55:28Z,42.805,6.029,13.2971,4.59981,2470.04,2020-3-14T15:56:05Z
2020-03-14T13:58:31Z,42.805,6.029,13.2971,4.59982,2470.017,2020-3-14T15:59:09Z
2020-03-14T14:01:35Z,42.805,6.029,13.2975,4.59980,2470.04,2020-3-14T16:02:12Z
2020-03-14T14:04:38Z,42.805,6.029,13.2974,4.59986,2470.03,2020-3-14T16:05:15Z
2020-03-14T14:07:41Z,42.805,6.029,13.2976,4.59980,2470.04,2020-3-14T16:08:18Z
2020-03-14T14:10:44Z,42.805,6.029,13.2975,4.59986,2470.04,2020-3-14T16:11:21Z
2020-03-14T14:13:47Z,42.805,6.029,13.2976,4.59986,2470.04,2020-3-14T16:14:25Z
2020-03-14T14:16:51Z,42.805,6.029,13.2974,4.59979,2470.04,2020-3-14T16:17:28Z
2020-03-14T14:19:54Z,42.805,6.029,13.2975,4.59983,2470.04,2020-3-14T16:20:31Z
2020-03-14T14:22:57Z,42.805,6.029,13.2979,4.59989,2470.017,2020-3-14T16:23:34Z
2020-03-14T14:26:01Z,42.805,6.029,13.2979,4.59999,2470.053,2020-3-14T16:26:38Z
2020-03-14T14:29:04Z,42.805,6.029,13.2975,4.59988,2470.053,2020-3-14T16:29:41Z
2020-03-14T14:32:07Z,42.805,6.029,13.2973,4.59983,2469.993,2020-3-14T16:32:44Z
2020-03-14T14:35:10Z,42.805,6.029,13.2976,4.59991,2470.053,2020-3-14T16:35:47Z
2020-03-14T14:38:13Z,42.805,6.029,13.2979,4.59985,2470.007,2020-3-14T16:38:51Z
2020-03-14T14:41:17Z,42.805,6.029,13.2976,4.59997,2469.993,2020-3-14T16:41:54Z
2020-03-14T14:44:20Z,42.805,6.029,13.2976,4.59989,2470.03,2020-3-14T16:44:57Z
2020-03-14T14:47:23Z,42.805,6.029,13.2974,4.59995,2470.017,2020-3-14T16:48:00Z
2020-03-14T14:50:26Z,42.805,6.029,13.2977,4.59987,2469.993,2020-3-14T16:51:03Z
2020-03-14T14:53:30Z,42.805,6.029,13.2973,4.59988,2469.993,2020-3-14T16:54:07Z
2020-03-14T14:56:33Z,42.805,6.029,13.2971,4.59987,2470.017,2020-3-14T16:57:10Z
2020-03-14T14:59:36Z,42.805,6.029,13.2978,4.59983,2469.993,2020-3-14T17:00:13Z
2020-03-14T15:02:39Z,42.805,6.029,13.2973,4.59981,2469.993,2020-3-14T17:03:16Z
2020-03-14T15:05:42Z,42.805,6.029,13.2971,4.59981,2469.97,2020-3-14T17:06:20Z
2020-03-14T15:08:46Z,42.805,6.029,13.2982,4.59982,2469.993,2020-3-14T17:09:23Z
2020-03-14T15:11:49Z,42.805,6.029,13.2974,4.59984,2470.007,2020-3-14T17:12:26Z
2020-03-14T15:14:52Z,42.805,6.029,13.2975,4.59983,2469.993,2020-3-14T17:15:29Z